Weather History for KBHM - February, 2013

Change the Weather History Date:

Monday, February 4, 2013

  Actual Average Record
Temperature  
Mean Temperature 42 °F 45 °F  
Max Temperature 52 °F 56 °F 77 °F (1927)
Min Temperature 32 °F 35 °F 4 °F (1996)
Degree Days  
Heating Degree Days 23 20  
Month to date heating degree days 96 80  
Since 1 July heating degree days 1578 1785  
Moisture  
Dew Point 29 °F    
Average Humidity 59    
Maximum Humidity 82    
Minimum Humidity 35    
Precipitation  
Precipitation 0.00 in 0.16 in 3.74 in (1971)
Month to date precipitation 0.06 0.65  
Year to date precipitation 8.44 5.49  
Snow  
Snow 0.00 in 0.00 in - ()
Month to date snowfall 0.0 0.0  
Since 1 July snowfall 2.1 0.7  
Snow Depth 0.00 in    
Sea Level Pressure  
Sea Level Pressure 30.08 in    
Wind  
Wind Speed 3 mph (SSE)    
Max Wind Speed 12 mph    
Max Gust Speed 15 mph    
Visibility 10 miles    
Events      
T = Trace of Precipitation, MM = Missing Value Source: NWS Daily Summary

Daily Weather History Graph

Daily Weather History Graph

Search for Another Location

Airport or City:

Trip Planner

Search our weather history database for the weather conditions in past years. The results will help you decide how hot, cold, wet, or windy it might be!

Date:

Astronomy

Feb. 04, 2013 Rise Set
Actual Time 6:40 AM CST 5:21 PM CST
Civil Twilight 6:14 AM CST 5:47 PM CST
Nautical Twilight 5:45 AM CST 6:17 PM CST
Astronomical Twilight 5:16 AM CST 6:46 PM CST
Moon 1:12 AM CST (2/4) 11:48 AM CST (2/4)
Length of Visible Light 11h 32m
Length of Day
10h 40m
Last Quarter, 37% of the Moon is Illuminated
Feb 4
Last Quarter
Feb 10
New
Feb 17
First Quarter
Feb 25
Full
Mar 4
Last Quarter

Hourly Weather History & Observations

Time (CST) Temp. Windchill Dew Point Humidity Pressure Visibility Wind Dir Wind Speed Gust Speed Precip Events Conditions
12:53 AM 35.1 °F - 30.0 °F 82% 30.13 in 10.0 mi Calm Calm - N/A   Clear
1:53 AM 33.1 °F - 28.9 °F 85% 30.12 in 10.0 mi Calm Calm - N/A   Clear
2:53 AM 34.0 °F - 27.0 °F 75% 30.11 in 10.0 mi Calm Calm - N/A   Clear
4:53 AM 37.0 °F - 28.9 °F 73% 30.11 in 10.0 mi Calm Calm - N/A   Clear
5:53 AM 39.0 °F 36.8 °F 28.0 °F 65% 30.13 in 10.0 mi NE 3.5 mph - N/A   Clear
6:53 AM 37.9 °F - 28.0 °F 68% 30.14 in 10.0 mi Calm Calm - N/A   Clear
7:53 AM 39.0 °F - 28.9 °F 67% 30.14 in 10.0 mi Calm Calm - N/A   Clear
8:53 AM 39.9 °F 35.8 °F 28.9 °F 65% 30.16 in 10.0 mi ESE 5.8 mph - N/A   Clear
9:53 AM 43.0 °F 39.5 °F 28.0 °F 56% 30.14 in 10.0 mi SE 5.8 mph - N/A   Clear
10:53 AM 45.0 °F 41.8 °F 28.9 °F 53% 30.14 in 10.0 mi SSE 5.8 mph - N/A   Clear
11:53 AM 46.9 °F - 30.0 °F 52% 30.11 in 10.0 mi ESE 4.6 mph - N/A   Clear
12:53 PM 50.0 °F - 27.0 °F 41% 30.08 in 10.0 mi South 5.8 mph - N/A   Clear
1:53 PM 51.1 °F - 25.0 °F 36% 30.04 in 10.0 mi South 8.1 mph - N/A   Clear
2:53 PM 52.0 °F - 28.0 °F 40% 30.04 in 10.0 mi South 8.1 mph - N/A   Clear
3:53 PM 52.0 °F - 28.0 °F 40% 30.04 in 10.0 mi South 8.1 mph - N/A   Clear
4:53 PM 51.1 °F - 28.9 °F 43% 30.04 in 10.0 mi SSW 5.8 mph - N/A   Clear
5:53 PM 50.0 °F - 30.9 °F 48% 30.04 in 10.0 mi South 4.6 mph - N/A   Clear
6:53 PM 48.9 °F - 32.0 °F 52% 30.04 in 10.0 mi Calm Calm - N/A   Clear
7:53 PM 48.9 °F - 33.1 °F 54% 30.04 in 10.0 mi SSE 3.5 mph - N/A   Mostly Cloudy
8:53 PM 48.0 °F - 30.9 °F 52% 30.02 in 10.0 mi SE 3.5 mph - N/A   Mostly Cloudy
9:53 PM 48.9 °F - 30.9 °F 50% 30.01 in 10.0 mi Calm Calm - N/A   Mostly Cloudy
10:53 PM 48.9 °F - 33.1 °F 54% 30.01 in 10.0 mi Calm Calm - N/A   Overcast
11:53 PM 50.0 °F - 34.0 °F 54% 29.99 in 10.0 mi South 3.5 mph - N/A   Overcast